This demonstration page uses our WeatherBlox Daily Observations layout. Learn more.

Left ArrowRight Arrow

Hourly Observations for September 6, 2015

Temp ( °F °C ) Dew Point ( °F °C ) Humidity (%) Winds ( mph kmh ) Pressure ( in mb ) Visibility ( mi km ) Precip ( " mm )
12:53 am 00:53 Clear 80 26.7 67 19.4 64 64 S 13 20 29.79 1009 10 16 0.00 0.00
1:53 am 01:53 Clear 79 26.1 67 19.4 67 67 S 14 22 29.80 1009 10 16 0.00 0.00
2:53 am 02:53 Clear 78 25.6 67 19.4 69 69 S 13 20 29.80 1009 10 16 0.00 0.00
3:53 am 03:53 Clear 77 25 67 19.4 71 71 S 14 22 29.78 1009 10 16 0.00 0.00
4:53 am 04:53 Clear 76 24.4 67 19.4 74 74 S 12 19 29.78 1009 10 16 0.00 0.00
5:53 am 05:53 Clear 76 24.4 66 18.9 72 72 S 12 19 29.78 1008 10 16 0.00 0.00
6:53 am 06:53 Clear 75 23.9 66 18.9 74 74 S 14 22 29.78 1008 10 16 0.00 0.00
7:53 am 07:53 Sunny 76 24.4 67 19.4 74 74 S 10 17 29.78 1009 10 16 0.00 0.00
8:53 am 08:53 Sunny 77 25 67 19.4 71 71 S 14 22 29.79 1009 10 16 0.00 0.00
9:53 am 09:53 Sunny 80 26.7 66 18.9 62 62 SSW 15 24 29.79 1009 10 16 0.00 0.00
10:53 am 10:53 Mostly Sunny 82 27.8 66 18.9 58 58 SSW 12 19 29.80 1009 10 16 0.00 0.00
11:53 am 11:53 Sunny 87 30.6 67 19.4 51 51 WSW 8 13 29.82 1010 10 16 0.00 0.00
12:53 pm 12:53 Sunny 90 32.2 65 18.3 44 44 SSW 7 11 29.81 1010 10 16 0.00 0.00
1:53 pm 13:53 Sunny 92 33.3 63 17.2 38 38 VRB 6 9 29.80 1009 10 16 0.00 0.00
2:53 pm 14:53 Sunny 92 33.3 66 18.9 43 43 NNW 8 13 29.81 1010 10 16 0.00 0.00
3:53 pm 15:53 Sunny 91 32.8 66 18.9 44 44 NW 10 17 29.81 1009 10 16 0.00 0.00
4:53 pm 16:53 Sunny 91 32.8 66 18.9 44 44 NNW 15 24 29.82 1010 10 16 0.00 0.00
5:53 pm 17:53 Sunny 88 31.1 67 19.4 50 50 N 14 22 29.83 1010 10 16 0.00 0.00
6:53 pm 18:53 Sunny 85 29.4 66 18.9 53 53 N 9 15 29.84 1010 10 16 0.00 0.00
7:53 pm 19:53 Sunny 81 27.2 66 18.9 61 61 N 12 19 29.84 1010 10 16 0.00 0.00
8:53 pm 20:53 Clear 75 23.9 67 19.4 76 76 N 8 13 29.88 1012 10 16 0.00 0.00
9:53 pm 21:53 Clear 73 22.8 68 20 84 84 NE 7 11 29.91 1013 10 16 0.00 0.00
10:53 pm 22:53 Clear 72 22.2 68 20 87 87 NNE 7 11 29.93 1013 10 16 0.00 0.00
11:53 pm 23:53 Clear 70 21.1 67 19.4 90 90 NNE 8 13 29.93 1013 10 16 0.00 0.00

Powered by AerisWeather